Pagina principale
METAR-TAF:

METAR-TAF

Aeroporti :

Chugiak, Alaska, Stati Uniti

latitudine: 61-25N, longitudine: 149-31W, altezza: 29 m

Osservazione

Il bollettino è stato emesso 36 minuti fa, alle 23:13 UTC
Vento 3 kt da nord/nord-est
Temperature -1°C
Umidità 100%
Pressione 994 hPa
Visibilità: 0.4 km
Cielo coperto ad un'altezza di 300 ft
nebbia che ghiaccia

METAR: PABV 202313Z AUTO 03003KT 1/4SM FZFG OVC003 M01/M01 A2936 RMK AO2 FZRANO

Ora: 14:49 (23:49 UTC)


TAF: mancante

Osservazioni e previsioni meteorologiche di più di 4000 aeroporti (messaggi METAR e TAF).

Le stazioni disponibili sono rappresentate dai dischi gialli e rossi sulla carta.

Puntare il mouse per vedere il nome della stazione.

Clicca sopra per visualizzare le osservazioni e previsioni meteorologiche.

Per cambiare la mappa : fare clic sui pulsanti verdi con una croce nera per ingrandire, il pulsante verde con un trattino per diminuire, o sulla freccia verde per le mappe adiacenti.


METAR-TAF: